STARLINK-11273 [DTC]

Last updated on Tue Oct 01 2024 00:02:04 GMT+0000 (Coordinated Universal Time)

1 60913U 24154L 24274.18529029 -.00003594 00000+0 -17987-4 0 9998 2 60913 53.1613 202.8451 0000681 124.8558 235.2527 15.76716282 5950
UTC large
Height (km)
Speed (km/s)
/
Latitude / Longitude
Inclination (degrees)
Orbital Period (minutes)
Azimuth
Elevation
Range (km)
Doppler Factor

Next 0 passes for location: London (51.5072 / 0.1276)

Sorry there are no passes over London.